Vertical_Velocity
-1 -2 -2 -2 -1 -2 -1 3 2 -3 -4 -2 -1 -1 -0 -1 2 -3 -3 -3 -3 0 -0 0 0 3 1 -1 -3 -4 -4 -2 -2 -3 3 5 2 1 -0 2 2 -0 1
1 -1 -4 -3 -3 -3 -3 -1 -0 1 1 -1 1 1 -0 1 4 3 0 -2 -7 -1 1 -2 2 4 0 -1 -0 3 -0 0 1 -1 -3 -1 1 5 2 1 1 0 0
2 -5 -2 -4 -3 2 1 -2 -2 2 -1 -3 -2 0 -1 1 -1 -0 2 -1 -3 -2 -1 -1 2 4 2 -1 -6 -3 -2 2 3 3 -0 4 4 2 3 5 2 1 0
1 2 -3 1 9 13 13 1 -1 -1 2 2 -3 -2 1 1 0 0 5 2 -3 -2 -1 1 -4 1 -1 2 3 1 1 1 4 1 -0 -0 -1 -3 -2 3 2 2 1
-0 1 0 -2 3 -1 8 14 2 2 6 6 -3 -1 0 -1 2 1 -2 0 2 0 -2 -3 1 -2 2 1 2 0 -6 -3 -0 2 -0 2 2 1 -0 3 1 7 2
-3 -3 1 3 2 0 2 1 12 3 -1 2 3 -2 -2 2 4 -1 1 0 3 1 0 -3 1 -1 -1 -0 1 3 1 -3 -2 0 3 2 -0 1 2 2 2 2 4
0 -5 -1 -3 -1 -1 2 6 3 2 6 3 -1 -1 1 -4 1 -1 1 3 1 1 -1 1 0 1 -1 1 2 3 4 -0 -1 0 2 1 3 -2 -2 -2 -2 2 -1
-3 -3 -4 -4 -0 -4 -4 -4 2 1 0 0 -3 -3 -2 3 -1 -0 -2 3 -1 -2 -0 2 1 1 -1 -2 -0 -1 -1 -2 2 4 -0 -2 3 3 0 -2 0 1 1
-7 -1 -1 -4 -3 -0 -1 -4 -4 -3 -0 -1 3 -1 -1 -3 -6 1 -2 0 2 3 0 -2 0 1 2 2 1 -0 -1 1 -3 1 -2 1 -1 1 -0 1 -1 1 2
-0 -2 -8 -2 -1 1 -0 -1 -2 -4 -0 -2 -0 -0 16 1 1 6 7 2 2 1 -2 -1 1 1 1 0 4 1 -1 4 -2 -0 3 1 2 3 1 0 1 2 3
1 5 5 -2 -9 -4 1 -1 -1 -3 -3 2 -1 -3 14 9 9 11 8 3 2 -5 -7 -3 -0 -0 -3 -3 -2 -0 7 -5 -2 2 1 1 2 1 -0 -1 0 4 2
-4 -2 1 6 4 -5 -4 2 -5 -3 -1 1 -3 -2 7 1 3 36 134 -14 -9 -4 10 7 8 -5 -7 -4 -5 3 -1 -1 2 -2 3 2 2 1 -2 -2 -1 2 0
-3 -1 1 -2 2 -0 1 1 -2 -3 -2 4 2 -2 -4 4 6 -5 17 112 152 -1 -11 6 3 6 -4 -11 -4 -5 -5 -1 -0 -5 0 0 -2 -1 -1 2 0 -1 4
-3 -1 -0 -2 1 -4 -3 -0 -0 0 0 2 -1 -1 -1 -9 -8 -7 -16 -11 -1 12 5 -1 7 2 0 -1 -5 -2 -3 5 -0 -2 1 0 -3 -1 1 0 -2 -1 1
-2 -3 -1 -4 -0 -2 -3 -0 -1 3 -3 2 1 2 5 -1 1 -6 0 -23 -16 -13 -12 -4 5 1 -6 1 -3 -3 -0 4 4 -1 1 -0 -2 -1 1 0 -0 -1 2
4 -1 1 -1 -1 -2 -2 -1 -3 5 -3 -5 0 -1 9 9 5 -2 -6 -2 7 -7 -6 -15 1 -1 -4 -3 -3 -3 -1 4 4 -0 -2 -0 0 -2 -2 -0 -0 -2 0
-1 -1 -1 -4 1 -1 -3 1 3 -7 5 3 -0 2 3 -1 -1 3 -5 -6 -9 -4 1 -7 6 -2 11 -1 -3 -2 -3 1 -2 1 1 -1 -1 -1 0 0 1 -2 1
-2 -2 -2 -2 -1 -2 -3 1 1 3 -2 5 -1 -5 3 4 -2 3 -1 -0 -8 1 -2 -3 7 -8 -6 1 5 3 3 -1 1 -3 0 -2 1 -0 -1 0 -1 -2 -1
-2 -3 -2 0 1 1 -1 -1 -1 0 -3 3 -2 -2 0 0 0 1 1 2 2 4 3 6 1 6 13 13 -1 -1 -2 2 1 -4 -0 -2 -2 -0 -0 -1 -1 -2 -1
-3 -3 -2 -2 -1 -1 -2 1 -2 0 2 -3 3 -3 -5 -3 -2 -1 -1 -2 -6 -4 4 4 -12 -3 -8 -6 2 -1 -0 -1 4 -1 -4 -1 -2 -1 1 1 -0 -1 -0
-2 -5 -4 -1 -3 2 -1 -2 -3 0 3 0 1 0 -0 7 6 -2 -1 -2 -6 -0 -4 -4 0 -0 -4 -7 -7 -4 2 -1 -2 0 -3 -3 -1 -0 -0 0 -1 -1 -1
-2 -1 -0 1 1 -4 1 -0 1 0 -1 3 2 2 -0 -2 -2 -3 -12 -8 29 3 6 3 -2 -1 2 -1 -3 -2 5 5 -3 -0 -4 -4 -1 0 -1 -0 1 0 -2
-1 1 -3 2 1 -2 1 -1 -3 1 -0 -1 2 -3 1 4 -2 1 -1 -9 5 5 2 1 3 -1 8 -7 2 -3 2 1 -4 -1 -4 -4 -3 -2 -2 -2 -2 -2 2
-0 2 -1 2 3 -1 -1 -1 -5 -2 -3 -0 0 1 1 -5 -4 -7 2 -8 3 13 21 15 7 -0 11 2 -4 -5 5 -1 2 -1 -4 -4 1 -0 1 -0 0 -0 1
1 1 1 3 -1 -1 -2 -3 -2 -2 1 0 -4 -0 4 -0 -1 -2 -2 7 11 16 3 -0 5 2 -0 5 10 12 5 2 0 2 -4 -5 -0 -0 3 -1 -2 0 1
1 2 1 1 -1 1 -0 -6 4 3 8 0 10 0 0 -1 2 5 2 -8 1 4 7 4 6 -2 -2 1 1 3 2 5 3 -1 -1 0 3 5 3 -2 -2 -0 0
Height
5899 5898 5897 5896 5895 5895 5893 5894 5896 5894 5893 5891 5890 5890 5890 5892 5893 5894 5895 5896 5898 5900 5903 5905 5905 5903 5904 5904 5905 5907 5907 5908 5907 5906 5910 5912 5914 5915 5918 5921 5924 5924 5927
5898 5896 5895 5895 5894 5893 5892 5891 5891 5892 5891 5888 5888 5887 5887 5886 5887 5888 5889 5891 5891 5894 5896 5899 5900 5898 5898 5899 5903 5906 5907 5906 5905 5905 5905 5908 5910 5912 5915 5918 5921 5922 5923
5892 5892 5891 5890 5889 5889 5887 5886 5887 5887 5886 5885 5884 5884 5884 5883 5882 5883 5884 5886 5886 5887 5890 5892 5894 5896 5895 5894 5897 5902 5903 5904 5904 5905 5905 5904 5904 5907 5912 5915 5918 5920 5920
5888 5888 5886 5885 5883 5880 5877 5875 5878 5880 5881 5880 5879 5878 5878 5879 5879 5879 5880 5880 5880 5881 5883 5886 5888 5889 5890 5892 5893 5896 5899 5901 5902 5902 5904 5905 5904 5907 5909 5912 5913 5915 5916
5878 5879 5880 5879 5877 5875 5875 5873 5868 5866 5870 5875 5874 5872 5871 5872 5873 5873 5873 5873 5875 5876 5878 5880 5882 5883 5884 5887 5890 5891 5893 5895 5897 5897 5899 5901 5904 5906 5907 5909 5910 5911 5911
5866 5867 5868 5868 5867 5864 5863 5864 5861 5861 5860 5865 5867 5866 5865 5864 5865 5865 5866 5868 5870 5871 5872 5874 5875 5876 5879 5880 5883 5885 5888 5890 5891 5893 5895 5898 5900 5903 5904 5905 5906 5907 5907
5856 5853 5852 5852 5852 5851 5850 5851 5852 5853 5853 5855 5858 5858 5857 5857 5858 5859 5859 5861 5862 5864 5865 5867 5868 5870 5871 5873 5876 5879 5881 5883 5886 5887 5890 5892 5894 5896 5898 5899 5899 5901 5901
5845 5843 5839 5837 5836 5835 5835 5835 5837 5839 5841 5842 5844 5847 5848 5849 5848 5849 5850 5851 5853 5855 5857 5859 5861 5864 5865 5866 5869 5872 5874 5876 5878 5881 5883 5885 5888 5890 5892 5892 5894 5894 5893
5832 5829 5828 5825 5824 5822 5821 5820 5821 5823 5825 5829 5831 5833 5835 5838 5837 5837 5838 5841 5843 5845 5846 5848 5851 5854 5857 5859 5863 5866 5867 5869 5869 5871 5874 5876 5879 5881 5883 5885 5886 5886 5887
5821 5817 5813 5811 5811 5810 5809 5808 5808 5808 5809 5811 5816 5818 5820 5823 5824 5825 5825 5827 5832 5835 5835 5837 5839 5842 5845 5849 5854 5857 5860 5862 5861 5863 5866 5869 5870 5873 5875 5876 5876 5878 5879
5808 5804 5801 5797 5796 5796 5796 5795 5795 5795 5795 5795 5798 5801 5805 5806 5808 5810 5812 5814 5817 5819 5822 5826 5829 5831 5832 5836 5841 5846 5852 5851 5852 5855 5859 5860 5862 5864 5866 5867 5868 5870 5871
5793 5791 5788 5785 5784 5783 5780 5780 5779 5780 5781 5780 5780 5784 5786 5786 5778 5780 5795 5795 5801 5811 5817 5819 5823 5821 5822 5824 5828 5836 5838 5841 5844 5846 5849 5852 5853 5854 5855 5857 5859 5861 5861
5780 5777 5773 5770 5767 5765 5763 5764 5764 5764 5765 5767 5767 5769 5771 5773 5769 5767 5770 5745 5774 5792 5800 5807 5810 5814 5813 5815 5819 5823 5825 5831 5834 5836 5839 5841 5842 5843 5845 5849 5850 5851 5852
5766 5762 5758 5754 5750 5748 5746 5747 5749 5750 5751 5753 5754 5756 5757 5758 5759 5762 5762 5756 5764 5776 5786 5790 5798 5804 5805 5809 5812 5813 5816 5821 5823 5826 5829 5830 5831 5833 5835 5837 5839 5840 5843
5754 5749 5745 5741 5737 5734 5733 5733 5733 5735 5736 5738 5741 5744 5745 5746 5747 5748 5749 5749 5756 5762 5769 5776 5786 5791 5792 5796 5800 5804 5807 5810 5813 5815 5818 5820 5822 5823 5824 5827 5829 5832 5834
5740 5736 5733 5730 5727 5724 5722 5720 5720 5721 5721 5722 5725 5730 5733 5735 5734 5733 5736 5737 5744 5749 5756 5762 5773 5776 5780 5785 5788 5792 5796 5801 5803 5805 5807 5810 5812 5812 5812 5814 5819 5822 5823
5726 5723 5720 5717 5714 5712 5710 5708 5707 5706 5707 5708 5710 5713 5716 5720 5721 5723 5724 5724 5725 5730 5742 5750 5759 5762 5766 5771 5777 5781 5786 5791 5793 5795 5798 5800 5802 5803 5803 5805 5808 5811 5814
5713 5709 5705 5702 5699 5696 5693 5692 5692 5693 5693 5695 5695 5698 5702 5704 5707 5709 5712 5711 5712 5716 5722 5733 5738 5735 5749 5758 5766 5772 5777 5780 5783 5786 5787 5790 5793 5793 5795 5797 5800 5802 5805
5702 5698 5693 5689 5685 5681 5679 5677 5676 5676 5678 5681 5682 5685 5689 5691 5693 5694 5698 5700 5702 5705 5712 5720 5726 5733 5739 5748 5754 5758 5764 5770 5774 5777 5779 5780 5784 5787 5788 5790 5792 5795 5797
5694 5688 5682 5677 5673 5669 5666 5664 5662 5662 5664 5667 5670 5673 5676 5680 5682 5684 5686 5687 5690 5694 5699 5709 5719 5728 5732 5736 5741 5747 5753 5758 5764 5767 5770 5770 5773 5778 5780 5781 5784 5787 5789
5686 5679 5673 5667 5664 5660 5656 5652 5651 5652 5653 5655 5658 5662 5665 5670 5674 5676 5677 5680 5682 5685 5691 5699 5708 5713 5717 5722 5728 5734 5739 5746 5753 5756 5759 5762 5764 5768 5770 5772 5775 5778 5780
5678 5672 5666 5660 5656 5654 5649 5646 5642 5642 5642 5644 5647 5652 5656 5659 5661 5665 5668 5670 5672 5679 5683 5689 5693 5696 5703 5706 5714 5721 5727 5733 5741 5745 5748 5751 5755 5759 5761 5762 5765 5768 5770
5671 5665 5660 5655 5651 5649 5645 5640 5636 5635 5632 5634 5639 5642 5646 5649 5652 5656 5659 5660 5663 5671 5674 5678 5682 5687 5690 5698 5705 5710 5716 5723 5731 5734 5736 5741 5744 5748 5751 5753 5755 5757 5759
5664 5659 5655 5650 5647 5644 5640 5636 5634 5631 5629 5629 5631 5635 5638 5642 5643 5647 5650 5653 5657 5662 5666 5670 5675 5682 5683 5693 5698 5703 5709 5712 5717 5723 5725 5729 5734 5737 5739 5741 5742 5743 5745
5659 5655 5652 5647 5644 5641 5638 5634 5630 5628 5627 5626 5626 5628 5631 5633 5636 5640 5644 5645 5649 5653 5659 5665 5669 5676 5678 5683 5689 5693 5695 5701 5706 5710 5713 5717 5722 5725 5728 5728 5728 5730 5733
5657 5653 5648 5644 5641 5639 5636 5632 5627 5623 5619 5622 5621 5623 5625 5627 5630 5633 5636 5642 5644 5645 5651 5656 5663 5669 5672 5677 5682 5687 5689 5692 5697 5700 5702 5705 5708 5713 5716 5717 5716 5717 5720